[[{"header":{"parameterUnit":"m.s-1","parameterCategory":1,"la1":30.2991,"la2":30.254,"lo1":-89.0895,"lo2":-89.0444,"dy":0.0017,"dx":0.0017,"nx":28,"ny":28,"refTime":"2024-12-05T03:00:00:Z","depth":0,"parameterNumber":2,"parameterNumberName":"U-component_of_WINDS"},"data":[0,0,0,0,0,0,0,0,0,0,0,0,0,0,0,0,0,0,0,0,0,0,0,0,0,0,0,0,0,0,0,0,0,0,0,0,0,0,0,0,0,0,0,0,0,0,0,0,0,0,0,0,0,0,0,0,0,0,-2.3971,-2.3971,0,-2.4008,-2.4008,-2.4009,-2.3952,-2.395,-2.3948,-2.3946,-2.3985,-2.3988,-2.3991,0,0,0,0,0,0,0,0,0,0,0,0,0,-2.3851,-2.3853,-2.397,-2.3971,-2.3971,-2.4008,-2.4008,-2.4009,-2.3952,-2.395,-2.3947,-2.3945,-2.3984,-2.3988,-2.3991,0,0,0,0,0,0,0,0,0,0,0,0,0,-2.3897,-2.3854,-2.397,-2.3948,-2.3946,-2.4008,-2.4008,-2.4009,-2.3953,-2.395,-2.3947,-2.3944,-2.3983,-2.3987,-2.3992,-2.4078,0,0,-2.4005,-2.4007,0,0,0,0,0,0,0,0,-2.3894,-2.3901,-2.395,-2.3949,-2.3947,-2.3972,-2.398,-2.4032,-2.3953,-2.395,-2.3946,-2.3943,-2.3983,-2.3987,-2.4001,-2.408,-2.4081,-2.4005,-2.4008,-2.401,-2.4011,0,0,0,0,0,0,0,-2.3891,-2.3899,-2.3985,-2.3951,-2.3949,-2.3936,-2.3939,-2.399,-2.3983,-2.395,-2.3946,-2.3951,-2.3982,-2.3997,-2.4001,-2.4082,-2.4005,-2.4009,-2.4012,-2.4013,-2.4233,-2.4236,0,0,0,0,0,0,-2.3891,-2.3897,-2.3984,-2.3986,-2.3913,-2.394,-2.3944,-2.3967,-2.3982,-2.3982,-2.3954,-2.3949,-2.3991,-2.3997,-2.4003,-2.4105,-2.401,-2.4014,-2.4016,-2.423,-2.4234,-2.4237,0,0,0,0,0,0,-2.3888,-2.3899,-2.3983,-2.3941,-2.395,-2.3945,-2.3972,-2.397,-2.3985,-2.3985,-2.3984,-2.3971,-2.3989,-2.3997,-2.4059,-2.4106,-2.4016,-2.402,-2.4226,-2.4231,-2.4235,-2.4311,0,0,0,0,0,0,-2.3885,-2.3898,-2.3931,-2.3942,-2.3953,-2.4039,-2.3975,-2.3972,-2.3992,-2.3986,-2.4,-2.4,-2.3987,-2.4053,-2.4064,-2.411,-2.4023,-2.4222,-2.4228,-2.4234,-2.4304,-2.4317,-2.4329,0,0,0,0,0,-2.3881,-2.3951,-2.3933,-2.3944,-2.3994,-2.4042,-2.4048,-2.4032,-2.3996,-2.4029,-2.4029,-2.3999,-2.4098,-2.406,-2.4072,-2.412,-2.4219,-2.4226,-2.4233,-2.4298,-2.4315,-2.4329,0,0,0,0,0,0,-2.3947,-2.3952,-2.3932,-2.4008,-2.4025,-2.4032,-2.4073,-2.405,-2.4077,-2.407,-2.4049,-2.4053,-2.412,-2.4126,-2.4083,-2.4204,-2.4153,-2.4163,-2.4198,-2.4214,-2.4226,-2.4224,-2.4027,0,0,0,0,0,-2.397,-2.4008,-2.4011,-2.4077,-2.4087,-2.4079,-2.4099,-2.4085,-2.4102,-2.4109,-2.4113,-2.4131,-2.4166,-2.419,-2.4222,-2.4304,-2.4306,-2.4342,-2.4355,-2.4365,-2.4374,-2.4418,-2.4435,-2.4261,-2.4261,-2.4261,0,0,-2.4018,-2.4026,-2.4052,-2.4091,-2.4102,-2.4143,-2.4085,-2.4131,-2.4161,-2.4116,-2.4176,-2.418,-2.4198,-2.4271,-2.4303,-2.4278,-2.4423,-2.4374,-2.4382,-2.4386,-2.4428,-2.4444,-2.4459,-2.4266,-2.4265,-2.4264,0,0,-2.4128,-2.4137,-2.4194,-2.4206,-2.4224,-2.4218,-2.4231,-2.4242,-2.4243,-2.4303,-2.427,-2.4305,-2.4366,-2.438,-2.4396,-2.4509,-2.4483,-2.452,-2.4586,-2.4629,-2.4643,-2.4655,-2.4697,-2.4712,-2.4529,-2.4529,-2.453,0,-2.4186,-2.4246,-2.4226,-2.4274,-2.4292,-2.4252,-2.431,-2.4322,-2.435,-2.4364,-2.4334,-2.441,-2.4419,-2.4495,-2.4523,-2.4536,-2.4551,-2.452,-2.4643,-2.4654,-2.4665,-2.4705,-2.4721,-2.4534,-2.4533,-2.4533,-2.4533,0,-2.4317,-2.4359,-2.4403,-2.443,-2.4453,-2.4506,-2.4494,-2.4519,-2.4502,-2.45,-2.4561,-2.457,-2.4604,-2.462,-2.4605,-2.4694,-2.4678,-2.4646,-2.4594,-2.4687,-2.4724,-2.4739,-2.454,-2.4539,-2.4537,-2.4536,0,0,-2.4471,-2.4486,-2.4502,-2.4515,-2.4531,-2.4563,-2.4613,-2.4646,-2.4669,-2.4688,-2.4731,-2.4782,-2.4753,-2.477,-2.4755,-2.4793,-2.4884,-2.4756,-2.4756,-2.4781,-2.4984,-2.5009,-2.5027,-2.4865,-2.4868,-2.487,-2.4983,0,-2.4581,-2.4669,-2.4651,-2.4737,-2.4776,-2.4738,-2.4781,-2.4796,-2.4794,-2.4827,-2.4825,-2.4862,-2.482,-2.483,-2.4865,-2.4865,-2.4924,-2.4857,-2.4906,-2.4908,-2.4904,-2.5046,-2.5073,-2.5179,-2.4997,-2.4999,-2.5001,0,-2.4722,-2.4747,-2.4837,-2.4847,-2.4862,-2.4902,-2.493,-2.4962,-2.4977,-2.4973,-2.4993,-2.497,-2.5021,-2.4967,-2.5036,-2.499,-2.5009,-2.5011,-2.5015,-2.5021,-2.4961,-2.5057,-2.5212,-2.5228,-2.5023,-2.5021,-2.502,0,-2.4828,-2.4883,-2.4944,-2.4955,-2.4968,-2.4997,-2.5003,-2.5016,-2.5037,-2.5061,-2.5074,-2.5104,-2.5121,-2.5145,-2.5132,-2.5093,-2.5203,-2.5148,-2.5202,-2.5203,-2.5229,-2.5228,-2.5391,-2.5238,-2.5238,-2.5237,-2.5237,0,-2.4954,-2.501,-2.4991,-2.5029,-2.5091,-2.507,-2.5132,-2.5134,-2.5146,-2.5183,-2.5151,-2.5187,-2.5166,-2.52,-2.519,-2.5249,-2.5257,-2.5255,-2.5252,-2.5259,-2.526,-2.5273,-2.5266,-2.5242,-2.5241,-2.524,-2.5239,0,-2.5083,-2.5072,-2.5136,-2.5142,-2.5145,-2.5191,-2.5196,-2.5231,-2.5226,-2.5274,-2.5284,-2.5277,-2.5315,-2.5303,-2.5345,-2.5338,-2.5413,-2.54,-2.5408,-2.5406,-2.5461,-2.5457,-2.5639,-2.5663,-2.5493,-2.5495,-2.5496,0,-2.5165,-2.5208,-2.5218,-2.5241,-2.525,-2.5286,-2.5307,-2.5287,-2.531,-2.5331,-2.5364,-2.5399,-2.5427,-2.549,-2.5488,-2.552,-2.5508,-2.557,-2.5513,-2.5518,-2.5511,-2.5509,-2.5514,-2.5582,-2.5584,-2.5585,-2.5587,0,-2.5312,-2.5305,-2.5336,-2.5365,-2.5391,-2.5413,-2.5432,-2.5452,-2.5434,-2.5461,-2.55,-2.5521,-2.5563,-2.5599,-2.5627,-2.5634,-2.5608,-2.5604,-2.5619,-2.5627,-2.5631,-2.5631,-2.5441,-2.5601,-2.5599,-2.5598,-2.5598,-2.5597,-2.5422,-2.5458,-2.5471,-2.5506,-2.5518,-2.5537,-2.557,-2.5569,-2.5601,-2.5634,-2.562,-2.5665,-2.5679,-2.5714,-2.5724,-2.5759,-2.5735,-2.5756,-2.5762,-2.5768,-2.5775,-2.5624,-2.5764,-2.5763,-2.5763,-2.5763,-2.5762,0,-2.5569,-2.5575,-2.5608,-2.5635,-2.5663,-2.5635,-2.5654,-2.568,-2.572,-2.5734,-2.5762,-2.5807,-2.5841,-2.5841,-2.5873,-2.5901,-2.589,-2.591,-2.5909,-2.5911,-2.5794,-2.5779,-2.5919,-2.5919,-2.5919,-2.5919,-2.5919,-2.5919,-2.5649,-2.5709,-2.5703,-2.5768,-2.5774,-2.5817,-2.5831,-2.5848,-2.586,-2.5911,-2.5939,-2.5939,-2.5948,-2.598,-2.6011,-2.601,-2.6024,-2.6049,-2.6044,-2.5935,-2.5919,-2.5905,-2.5891,-2.6052,-2.6052,-2.6159,-2.616,-2.616]},{"header":{"parameterUnit":"m.s-1","parameterCategory":1,"la1":30.2991,"la2":30.254,"lo1":-89.0895,"lo2":-89.0444,"dy":0.0017,"dx":0.0017,"nx":28,"ny":28,"refTime":"2024-12-05T03:00:00:Z","depth":0,"parameterNumber":3,"parameterNumberName":"V-component_of_WINDS"},"data":[0,0,0,0,0,0,0,0,0,0,0,0,0,0,0,0,0,0,0,0,0,0,0,0,0,0,0,0,0,0,0,0,0,0,0,0,0,0,0,0,0,0,0,0,0,0,0,0,0,0,0,0,0,0,0,0,0,0,-6.4205,-6.4205,0,-6.4283,-6.4284,-6.4285,-6.4223,-6.422,-6.4218,-6.4215,-6.429,-6.4295,-6.4299,0,0,0,0,0,0,0,0,0,0,0,0,0,-6.3996,-6.4,-6.4204,-6.4205,-6.4206,-6.4283,-6.4284,-6.4285,-6.4223,-6.422,-6.4217,-6.4214,-6.4289,-6.4294,-6.43,0,0,0,0,0,0,0,0,0,0,0,0,0,-6.4082,-6.4002,-6.4204,-6.4185,-6.4184,-6.4283,-6.4284,-6.4285,-6.4224,-6.422,-6.4216,-6.4212,-6.4287,-6.4294,-6.43,-6.442,0,0,-6.4321,-6.4324,0,0,0,0,0,0,0,0,-6.4077,-6.4089,-6.4187,-6.4187,-6.4186,-6.4239,-6.4238,-6.433,-6.4225,-6.4209,-6.4215,-6.421,-6.4276,-6.4284,-6.4307,-6.4424,-6.4427,-6.4321,-6.4325,-6.4328,-6.433,0,0,0,0,0,0,0,-6.4071,-6.4086,-6.4235,-6.4188,-6.4188,-6.4171,-6.4179,-6.4255,-6.4263,-6.421,-6.4206,-6.4216,-6.4275,-6.43,-6.4308,-6.4428,-6.4321,-6.4327,-6.4331,-6.4334,-6.4647,-6.4651,0,0,0,0,0,0,-6.4068,-6.4081,-6.4233,-6.4238,-6.4121,-6.4178,-6.4186,-6.4226,-6.4262,-6.4264,-6.4219,-6.4213,-6.4291,-6.43,-6.431,-6.4454,-6.4328,-6.4334,-6.4338,-6.4643,-6.4648,-6.4653,0,0,0,0,0,0,-6.4064,-6.4082,-6.423,-6.4158,-6.4176,-6.4186,-6.423,-6.4229,-6.4255,-6.427,-6.427,-6.4244,-6.4288,-6.4301,-6.4394,-6.4455,-6.4337,-6.4343,-6.4638,-6.4644,-6.465,-6.4741,0,0,0,0,0,0,-6.4058,-6.4081,-6.4128,-6.416,-6.418,-6.4314,-6.4234,-6.4234,-6.4267,-6.4259,-6.4293,-6.4295,-6.4286,-6.4384,-6.44,-6.4462,-6.4349,-6.4632,-6.4641,-6.4648,-6.4732,-6.4749,-6.4764,0,0,0,0,0,-6.4051,-6.4149,-6.4131,-6.4149,-6.4239,-6.4317,-6.4328,-6.4318,-6.4272,-6.4319,-6.4328,-6.4294,-6.4446,-6.4394,-6.4412,-6.4477,-6.4628,-6.4638,-6.4648,-6.4725,-6.4746,-6.4764,0,0,0,0,0,0,-6.4122,-6.4153,-6.4133,-6.4245,-6.4279,-6.4307,-6.4365,-6.434,-6.4387,-6.4378,-6.4361,-6.4369,-6.4467,-6.4481,-6.4423,-6.4595,-6.4529,-6.4543,-6.4582,-6.4602,-6.4618,-6.4613,-6.4354,0,0,0,0,0,-6.4151,-6.4214,-6.4236,-6.4333,-6.4351,-6.4356,-6.4389,-6.4378,-6.4412,-6.4426,-6.4442,-6.4475,-6.453,-6.4567,-6.4618,-6.4734,-6.474,-6.4787,-6.4803,-6.4816,-6.4828,-6.489,-6.4911,-6.4685,-6.4685,-6.4684,0,0,-6.4211,-6.4236,-6.4276,-6.4348,-6.4373,-6.4437,-6.4368,-6.4438,-6.4485,-6.4436,-6.4525,-6.4538,-6.4574,-6.4678,-6.4725,-6.4693,-6.4892,-6.4828,-6.4839,-6.4844,-6.4902,-6.4923,-6.4942,-6.4691,-6.469,-6.4689,0,0,-6.4354,-6.4379,-6.4462,-6.4489,-6.4529,-6.4531,-6.4551,-6.4583,-6.459,-6.468,-6.4644,-6.4698,-6.4794,-6.4821,-6.4847,-6.5,-6.4969,-6.5017,-6.51,-6.516,-6.5178,-6.5194,-6.5248,-6.5268,-6.5028,-6.5029,-6.5029,0,-6.4423,-6.4519,-6.4508,-6.4581,-6.4613,-6.4574,-6.4657,-6.4683,-6.4737,-6.476,-6.4723,-6.4842,-6.4863,-6.4974,-6.5011,-6.5034,-6.5055,-6.5013,-6.5177,-6.5193,-6.5207,-6.5259,-6.5279,-6.5034,-6.5034,-6.5033,-6.5033,0,-6.4603,-6.467,-6.4732,-6.4787,-6.4826,-6.4904,-6.4903,-6.4944,-6.4929,-6.4935,-6.5026,-6.5049,-6.5105,-6.513,-6.5116,-6.5239,-6.5218,-6.518,-6.5114,-6.5234,-6.5283,-6.5302,-6.5042,-6.504,-6.5039,-6.5037,0,0,-6.4793,-6.4841,-6.4864,-6.4889,-6.4929,-6.498,-6.5056,-6.5112,-6.5147,-6.5185,-6.5247,-6.5329,-6.5294,-6.5324,-6.5312,-6.5365,-6.5484,-6.532,-6.532,-6.535,-6.5621,-6.565,-6.5673,-6.5464,-6.5468,-6.5471,-6.5618,0,-6.4937,-6.5071,-6.5063,-6.5188,-6.5249,-6.5212,-6.5278,-6.5309,-6.5316,-6.5368,-6.5374,-6.5433,-6.5382,-6.54,-6.545,-6.5459,-6.5538,-6.5448,-6.5521,-6.5524,-6.5514,-6.5698,-6.5729,-6.5866,-6.5636,-6.564,-6.5642,0,-6.5124,-6.5171,-6.5303,-6.5335,-6.536,-6.542,-6.547,-6.5521,-6.5555,-6.5556,-6.559,-6.5569,-6.5643,-6.5576,-6.5678,-6.5617,-6.5645,-6.5654,-6.5659,-6.5666,-6.5591,-6.571,-6.591,-6.5931,-6.5671,-6.5669,-6.5667,0,-6.525,-6.5345,-6.5437,-6.5459,-6.5498,-6.5541,-6.5559,-6.5589,-6.5623,-6.5667,-6.5689,-6.574,-6.5768,-6.5807,-6.58,-6.5752,-6.5904,-6.5836,-6.5906,-6.5907,-6.594,-6.5938,-6.6148,-6.5959,-6.5958,-6.5958,-6.5957,0,-6.5413,-6.5495,-6.5494,-6.555,-6.5641,-6.5629,-6.5719,-6.5731,-6.5759,-6.5816,-6.5785,-6.5839,-6.5827,-6.5879,-6.5874,-6.5959,-6.5972,-6.5974,-6.5971,-6.5977,-6.5977,-6.5996,-6.5986,-6.5963,-6.5962,-6.5961,-6.596,0,-6.5569,-6.5572,-6.5669,-6.5699,-6.5708,-6.5773,-6.5798,-6.585,-6.5854,-6.5927,-6.5943,-6.5949,-6.601,-6.6007,-6.6074,-6.6071,-6.6176,-6.6162,-6.6165,-6.6162,-6.6233,-6.6227,-6.6463,-6.6493,-6.6284,-6.6286,-6.6287,0,-6.5673,-6.5735,-6.5772,-6.5809,-6.5831,-6.589,-6.5925,-6.5916,-6.5953,-6.5997,-6.6044,-6.6102,-6.6148,-6.6246,-6.6256,-6.6307,-6.6295,-6.6374,-6.6302,-6.6306,-6.6296,-6.6293,-6.6299,-6.6388,-6.6391,-6.6392,-6.6394,0,-6.5857,-6.5855,-6.5909,-6.5963,-6.6006,-6.6048,-6.6085,-6.6117,-6.6111,-6.6154,-6.6217,-6.6253,-6.6323,-6.6381,-6.643,-6.6446,-6.6419,-6.6416,-6.6436,-6.6442,-6.6441,-6.6443,-6.6204,-6.6411,-6.6409,-6.6408,-6.6407,-6.6407,-6.599,-6.6044,-6.6079,-6.6139,-6.6167,-6.6203,-6.6254,-6.6265,-6.6318,-6.6376,-6.6366,-6.6436,-6.6467,-6.6531,-6.6552,-6.6606,-6.6577,-6.6605,-6.6612,-6.6619,-6.6627,-6.6433,-6.6614,-6.6614,-6.6613,-6.6613,-6.6613,0,-6.6173,-6.6194,-6.6249,-6.6304,-6.6351,-6.6323,-6.6364,-6.6404,-6.6467,-6.6499,-6.6546,-6.6617,-6.6673,-6.6687,-6.6741,-6.678,-6.6769,-6.6795,-6.6792,-6.6796,-6.6649,-6.6628,-6.6803,-6.6803,-6.6803,-6.6803,-6.6803,-6.6803,-6.6274,-6.6364,-6.6367,-6.647,-6.6489,-6.6559,-6.6585,-6.6617,-6.6643,-6.6725,-6.6772,-6.6782,-6.6806,-6.6861,-6.6911,-6.6913,-6.6934,-6.6965,-6.6963,-6.6825,-6.6806,-6.6788,-6.6768,-6.6969,-6.697,-6.7105,-6.7106,-6.7107]}]]